KF5JED-13 Weather Reports


time (UTC)temp
F
wind
direction
speed
knots
gust
knots
rain 1hr
in
rain 24hr
in
rain mn
in
humidity
%
barometer
mb
20260901175807 92 165 10.4 14.8 0.00 0.00 0.00 32 1020.1
20260901175305 90 178 6.1 10.4 0.00 0.00 0.00 37 1019.9
20260901174757 89 189 4.3 13.0 0.00 0.00 0.00 35 1020.2
20260901174253 91 202 13.0 16.5 0.00 0.00 0.00 34 1020.1
20260901173748 88 194 9.6 13.0 0.00 0.00 0.00 38 1019.9
20260901173243 89 205 10.4 13.9 0.00 0.00 0.00 38 1020.2
20260901172740 90 208 11.3 15.6 0.00 0.00 0.00 38 1020.4
20260901172238 89 224 7.0 13.9 0.00 0.00 0.00 39 1020.4
20260901171736 89 212 8.7 16.5 0.00 0.00 0.00 38 1020.2
20260901171236 91 175 7.8 12.2 0.00 0.00 0.00 38 1020.5
20260901170735 89 180 9.6 15.6 0.00 0.00 0.00 37 1020.4
20260901170230 89 234 8.7 10.4 0.00 0.00 0.00 39 1020.4
20260901165728 88 196 10.4 14.8 0.00 0.00 0.00 39 1020.1
20260901165223 89 181 9.6 16.5 0.00 0.00 0.00 40 1020.4
20260901164720 88 215 11.3 17.4 0.00 0.00 0.00 41 1020.2
20260901164215 89 185 9.6 17.4 0.00 0.00 0.00 42 1020.2
20260901163710 89 199 11.3 17.4 0.00 0.00 0.00 42 1020.2
20260901163209 87 199 9.6 13.9 0.00 0.00 0.00 44 1020.2
20260901162705 87 205 8.7 17.4 0.00 0.00 0.00 45 1020.4
20260901162204 87 221 14.8 16.5 0.00 0.00 0.00 45 1020.1
20260901161702 86 208 13.0 18.2 0.00 0.00 0.00 46 1020.2
20260901161157 86 217 9.6 19.1 0.00 0.00 0.00 46 1020.1
20260901160654 85 218 14.8 20.9 0.00 0.00 0.00 47 1020.1
20260901160149 86 212 13.9 20.9 0.00 0.00 0.00 47 1019.9
20260901155648 86 202 13.0 18.2 0.00 0.00 0.00 47 1020.0
20260901155143 85 211 16.5 20.9 0.00 0.00 0.00 48 1020.0
20260901154638 85 206 14.8 19.1 0.00 0.00 0.00 49 1020.1
20260901154132 84 207 11.3 19.1 0.00 0.00 0.00 49 1020.2
20260901153628 85 202 10.4 17.4 0.00 0.00 0.00 49 1020.1
20260901153127 84 206 13.0 17.4 0.00 0.00 0.00 50 1020.2
20260901152623 84 221 8.7 19.1 0.00 0.00 0.00 51 1020.1
20260901152121 83 211 16.5 20.9 0.00 0.00 0.00 51 1020.1
20260901151617 84 211 12.2 17.4 0.00 0.00 0.00 50 1020.1
20260901151116 82 215 18.2 20.0 0.00 0.00 0.00 52 1020.1
20260901150615 82 212 14.8 21.7 0.00 0.00 0.00 52 1020.2
20260901150113 83 213 13.0 17.4 0.00 0.00 0.00 52 1020.1
20260901145607 83 209 12.2 19.1 0.00 0.00 0.00 52 1020.2
20260901145106 82 216 17.4 21.7 0.00 0.00 0.00 53 1020.2
20260901144602 82 213 10.4 16.5 0.00 0.00 0.00 52 1020.0
20260901144056 81 214 13.0 19.1 0.00 0.00 0.00 53 1020.1
20260901143552 81 211 16.5 17.4 0.00 0.00 0.00 54 1020.1
20260901143049 81 210 13.9 15.6 0.00 0.00 0.00 54 1020.2
20260901142544 80 207 8.7 12.2 0.00 0.00 0.00 53 1020.4
20260901142043 80 210 8.7 15.6 0.00 0.00 0.00 54 1020.1
20260901141538 80 189 7.0 14.8 0.00 0.00 0.00 53 1020.2
20260901141033 79 211 9.6 14.8 0.00 0.00 0.00 55 1020.2
20260901140532 79 212 10.4 16.5 0.00 0.00 0.00 55 1020.0
20260901140027 78 213 10.4 12.2 0.00 0.00 0.00 56 1020.2
20260901135525 77 204 9.6 15.6 0.00 0.00 0.00 57 1020.5
20260901135021 78 212 12.2 13.9 0.00 0.00 0.00 56 1020.2
20260901134517 77 214 13.0 13.0 0.00 0.00 0.00 56 1020.4
20260901134012 76 218 9.6 16.5 0.00 0.00 0.00 58 1020.2
20260901133511 76 204 7.8 13.0 0.00 0.00 0.00 58 1020.2
20260901133010 76 216 11.3 13.9 0.00 0.00 0.00 58 1020.4
20260901132509 76 211 9.6 13.0 0.00 0.00 0.00 58 1020.4
20260901132009 75 201 9.6 11.3 0.00 0.00 0.00 59 1020.4
20260901131503 74 198 7.8 10.4 0.00 0.00 0.00 59 1020.2
20260901130959 74 208 7.8 9.6 0.00 0.00 0.00 60 1020.5
20260901130453 74 202 7.0 8.7 0.00 0.00 0.00 61 1020.2
20260901125950 73 194 5.2 7.8 0.00 0.00 0.00 61 1020.4
20260901125451 73 203 7.0 7.0 0.00 0.00 0.00 61 1020.2
20260901124945 73 203 7.0 9.6 0.00 0.00 0.00 62 1020.0
20260901124440 72 191 9.6 10.4 0.00 0.00 0.00 62 1019.9
20260901123935 72 192 5.2 9.6 0.00 0.00 0.00 62 1019.9
20260901123430 72 184 6.1 8.7 0.00 0.00 0.00 61 1019.9
20260901122928 72 188 4.3 9.6 0.00 0.00 0.00 61 1019.9
20260901122428 72 189 6.1 8.7 0.00 0.00 0.00 61 1019.6
20260901121927 73 194 8.7 10.4 0.00 0.00 0.00 60 1019.5
20260901121422 73 188 8.7 10.4 0.00 0.00 0.00 60 1019.7
20260901120918 73 172 7.0 11.3 0.00 0.00 0.00 59 1019.7
20260901120417 73 194 7.8 11.3 0.00 0.00 0.00 59 1019.7
20260901115913 73 191 7.0 9.6 0.00 0.00 0.00 59 1019.5
20260901115412 73 189 10.4 10.4 0.00 0.00 0.00 58 1019.5
20260901114911 73 194 7.0 9.6 0.00 0.00 0.00 58 1019.7
20260901114406 73 180 5.2 7.8 0.00 0.00 0.00 58 1019.4
20260901113904 73 191 7.0 8.7 0.00 0.00 0.00 58 1019.2
20260901113403 73 178 6.1 8.7 0.00 0.00 0.00 58 1019.1
20260901112858 73 182 7.0 9.6 0.00 0.00 0.00 58 1019.4
20260901112353 73 203 7.0 9.6 0.00 0.00 0.00 57 1019.5
20260901111848 73 205 7.8 8.7 0.00 0.00 0.00 57 1019.6
20260901111346 73 206 7.0 10.4 0.00 0.00 0.00 57 1019.4
20260901110845 73 200 7.0 9.6 0.00 0.00 0.00 57 1019.2
20260901110341 73 172 7.8 10.4 0.00 0.00 0.00 56 1019.4
20260901105837 73 178 7.8 9.6 0.00 0.00 0.00 57 1019.4
20260901105332 73 180 6.1 8.7 0.00 0.00 0.00 57 1019.0
20260901104828 73 173 6.1 9.6 0.00 0.00 0.00 57 1019.0
20260901104323 73 160 8.7 10.4 0.00 0.00 0.00 57 1019.0
20260901103819 73 175 6.1 9.6 0.00 0.00 0.00 57 1018.9
20260901103319 73 172 7.8 9.6 0.00 0.00 0.00 57 1019.0
20260901102814 73 178 5.2 11.3 0.00 0.00 0.00 57 1018.9
20260901102308 72 168 6.1 7.0 0.00 0.00 0.00 57 1018.8
20260901101803 73 166 4.3 9.6 0.00 0.00 0.00 57 1019.1
20260901101258 72 166 7.8 8.7 0.00 0.00 0.00 58 1018.9
20260901100757 72 167 5.2 8.7 0.00 0.00 0.00 57 1018.9
20260901100252 72 160 4.3 7.8 0.00 0.00 0.00 56 1018.9
20260901095750 72 164 5.2 8.7 0.00 0.00 0.00 56 1018.8
20260901095248 73 174 6.1 8.7 0.00 0.00 0.00 56 1018.9
20260901094743 73 170 6.1 8.7 0.00 0.00 0.00 55 1018.9
20260901094238 73 180 3.5 7.0 0.00 0.00 0.00 55 1019.0
20260901093733 73 186 6.1 7.0 0.00 0.00 0.00 55 1019.0
20260901093231 73 173 7.8 8.7 0.00 0.00 0.00 54 1018.9
20260901092728 74 167 7.8 9.6 0.00 0.00 0.00 54 1019.0
20260901092224 74 162 7.8 11.3 0.00 0.00 0.00 53 1019.1
20260901091719 74 171 7.0 11.3 0.00 0.00 0.00 53 1019.0
20260901091214 73 156 5.2 11.3 0.00 0.00 0.00 53 1019.1
20260901090709 74 161 9.6 13.0 0.00 0.00 0.00 52 1018.8
20260901090204 74 159 8.7 11.3 0.00 0.00 0.00 53 1018.8
20260901085700 74 158 7.8 13.0 0.00 0.00 0.00 52 1018.7
20260901085155 75 148 7.8 14.8 0.00 0.00 0.00 51 1019.0
20260901084652 75 154 9.6 13.9 0.00 0.00 0.00 51 1018.8
20260901084148 74 157 11.3 13.0 0.00 0.00 0.00 51 1018.8
20260901083647 75 156 8.7 13.9 0.00 0.00 0.00 51 1018.7
20260901083146 75 155 10.4 13.9 0.00 0.00 0.00 50 1018.7
20260901082640 75 158 9.6 11.3 0.00 0.00 0.00 50 1018.6
20260901082136 75 163 7.8 13.0 0.00 0.00 0.00 50 1018.8
20260901081631 75 153 7.8 13.0 0.00 0.00 0.00 49 1018.8
20260901081125 76 155 9.6 14.8 0.00 0.00 0.00 49 1018.7
20260901080620 76 153 9.6 13.0 0.00 0.00 0.00 49 1018.6
20260901080118 77 148 10.4 14.8 0.00 0.00 0.00 48 1018.7
20260901075614 77 147 10.4 14.8 0.00 0.00 0.00 48 1018.9
20260901075114 77 154 12.2 14.8 0.00 0.00 0.00 48 1018.9
20260901074608 77 155 13.0 13.9 0.00 0.00 0.00 48 1019.1
20260901074103 77 163 13.0 14.8 0.00 0.00 0.00 48 1018.8
20260901073600 77 147 10.4 13.0 0.00 0.00 0.00 48 1018.9
20260901073059 77 157 11.3 13.9 0.00 0.00 0.00 48 1018.8
20260901072555 77 147 10.4 13.0 0.00 0.00 0.00 48 1018.9
20260901072049 77 136 8.7 13.9 0.00 0.00 0.00 48 1018.7
20260901071544 77 146 13.0 13.0 0.00 0.00 0.00 47 1018.9
20260901071042 77 146 8.7 13.0 0.00 0.00 0.00 48 1019.0
20260901070538 77 148 7.8 14.8 0.00 0.00 0.00 48 1018.9
20260901070033 77 159 7.8 12.2 0.00 0.00 0.00 47 1019.2
20260901065527 77 148 7.8 13.0 0.00 0.00 0.00 47 1019.0
20260901065021 77 149 9.6 12.2 0.00 0.00 0.00 47 1018.9
20260901064518 77 144 7.8 12.2 0.00 0.00 0.00 47 1019.4
20260901064015 77 152 7.8 12.2 0.00 0.00 0.00 47 1019.2
20260901063512 77 158 7.8 10.4 0.00 0.00 0.00 47 1019.1
20260901063008 77 144 7.8 12.2 0.00 0.00 0.00 47 1019.2
20260901062503 77 153 6.1 9.6 0.00 0.00 0.00 48 1019.0
20260901061959 76 145 5.2 11.3 0.00 0.00 0.00 48 1019.1
20260901061454 77 159 7.8 10.4 0.00 0.00 0.00 48 1019.2
20260901060949 77 154 7.0 11.3 0.00 0.00 0.00 47 1018.9
20260901060444 77 153 9.6 10.4 0.00 0.00 0.00 48 1018.9
20260901055944 77 143 7.0 9.6 0.00 0.00 0.00 48 1019.0
20260901055440 77 156 6.1 9.6 0.00 0.00 0.00 48 1019.1
20260901054937 77 147 7.8 9.6 0.00 0.00 0.00 48 1018.9
20260901054434 76 148 7.0 8.7 0.00 0.00 0.00 49 1019.1
20260901053929 77 150 8.7 9.6 0.00 0.00 0.00 48 1019.0
20260901053425 77 145 7.0 11.3 0.00 0.00 0.00 48 1019.1
20260901052920 77 148 6.1 9.6 0.00 0.00 0.00 48 1019.0
20260901052415 78 155 7.8 9.6 0.00 0.00 0.00 47 1019.1
20260901051914 78 147 7.8 9.6 0.00 0.00 0.00 48 1019.2
20260901051410 78 136 7.0 9.6 0.00 0.00 0.00 48 1019.0
20260901050904 78 151 7.0 8.7 0.00 0.00 0.00 48 1019.1
20260901050400 78 154 7.0 10.4 0.00 0.00 0.00 47 1019.0
20260901045900 78 152 6.1 9.6 0.00 0.00 0.00 47 1018.8
20260901045354 78 157 7.0 11.3 0.00 0.00 0.00 47 1019.0
20260901044850 78 157 7.0 10.4 0.00 0.00 0.00 47 1018.9
20260901044346 78 158 6.1 12.2 0.00 0.00 0.00 47 1019.1
20260901043841 78 144 9.6 11.3 0.00 0.00 0.00 47 1019.0
20260901043337 78 148 7.8 11.3 0.00 0.00 0.00 47 1018.6
20260901042837 78 149 7.8 11.3 0.00 0.00 0.00 47 1018.8
20260901042331 78 153 4.3 9.6 0.00 0.00 0.00 47 1018.8
20260901041827 78 138 7.0 10.4 0.00 0.00 0.00 47 1018.9
20260901041322 79 155 7.8 8.7 0.00 0.00 0.00 47 1018.9
20260901040821 79 146 7.0 11.3 0.00 0.00 0.00 46 1018.8
20260901040320 79 150 5.2 9.6 0.00 0.00 0.00 46 1018.7
20260901035815 79 157 7.0 10.4 0.00 0.00 0.00 45 1018.8
20260901035314 79 144 6.1 9.6 0.00 0.00 0.00 45 1018.5
20260901034812 80 155 5.2 10.4 0.00 0.00 0.00 44 1018.7
20260901034308 80 157 5.2 9.6 0.00 0.00 0.00 44 1018.6
20260901033802 80 147 7.8 7.8 0.00 0.00 0.00 44 1018.6
20260901033301 80 136 5.2 7.8 0.00 0.00 0.00 44 1018.7
20260901032759 80 151 5.2 9.6 0.00 0.00 0.00 44 1018.2
20260901032254 81 141 4.3 8.7 0.00 0.00 0.00 43 1018.2
20260901031749 80 142 4.3 8.7 0.00 0.00 0.00 43 1018.4
20260901031244 80 142 6.1 8.7 0.00 0.00 0.00 43 1018.1
20260901030739 80 144 3.5 7.8 0.00 0.00 0.00 43 1018.2
20260901030234 81 142 5.2 8.7 0.00 0.00 0.00 42 1018.0
20260901025728 81 139 6.1 8.7 0.00 0.00 0.00 42 1017.9
20260901025223 80 143 4.3 7.8 0.00 0.00 0.00 43 1017.7
20260901024717 80 132 7.8 9.6 0.00 0.00 0.00 43 1017.7
20260901024217 81 146 5.2 6.1 0.00 0.00 0.00 42 1017.6
20260901023715 81 133 3.5 7.8 0.00 0.00 0.00 42 1017.7
20260901023210 82 139 5.2 7.0 0.00 0.00 0.00 41 1017.5
20260901022706 82 150 5.2 7.8 0.00 0.00 0.00 41 1017.3
20260901022201 83 159 5.2 9.6 0.00 0.00 0.00 40 1017.3
20260901021656 83 150 7.0 7.8 0.00 0.00 0.00 40 1017.1
20260901021151 83 161 5.2 7.8 0.00 0.00 0.00 40 1017.1
20260901020647 83 151 5.2 6.1 0.00 0.00 0.00 40 1017.1
20260901020142 84 148 7.0 8.7 0.00 0.00 0.00 39 1017.0
20260901015637 84 160 6.1 9.6 0.00 0.00 0.00 39 1016.9
20260901015137 84 158 5.2 7.0 0.00 0.00 0.00 38 1016.8
20260901014632 84 161 6.1 7.0 0.00 0.00 0.00 39 1016.8
20260901014128 84 167 3.5 6.1 0.00 0.00 0.00 39 1016.9
20260901013624 84 161 6.1 7.0 0.00 0.00 0.00 38 1016.6
20260901013120 85 160 4.3 6.1 0.00 0.00 0.00 38 1016.9
20260901012619 85 156 5.2 7.0 0.00 0.00 0.00 37 1016.8
20260901012114 85 166 5.2 6.1 0.00 0.00 0.00 37 1016.6
20260901011610 86 164 6.1 7.8 0.00 0.00 0.00 37 1016.6
20260901011108 86 168 7.8 8.7 0.00 0.00 0.00 36 1016.9
20260901010603 87 158 5.2 6.1 0.00 0.00 0.00 34 1016.7
20260901005557 89 147 8.7 9.6 0.00 0.00 0.00 33 1016.3
20260901005052 89 157 9.6 13.9 0.00 0.00 0.00 33 1016.3
20260901004552 89 161 7.8 13.9 0.00 0.00 0.00 33 1016.5
20260901004047 90 157 7.8 10.4 0.00 0.00 0.00 33 1016.6
20260901003542 90 171 7.0 11.3 0.00 0.00 0.00 32 1016.3
20260901003040 91 161 7.8 12.2 0.00 0.00 0.00 31 1016.5
20260901002540 91 159 7.8 10.4 0.00 0.00 0.00 31 1016.5
20260901002035 91 158 11.3 13.9 0.00 0.00 0.00 30 1016.2
20260901001531 91 148 9.6 13.0 0.00 0.00 0.00 31 1016.6
20260901001026 91 159 7.8 13.9 0.00 0.00 0.00 30 1016.5
20260901000526 92 153 13.0 14.8 0.00 0.00 0.00 30 1016.5
20260901000022 92 150 9.6 17.4 0.00 0.00 0.00 31 1016.6
20260831235515 93 157 12.2 13.0 0.00 0.00 0.00 31 1016.5
20260831235011 93 160 9.6 12.2 0.00 0.00 0.00 30 1016.5
20260831234505 93 171 9.6 15.6 0.00 0.00 0.00 31 1016.6
20260831234001 93 158 11.3 13.9 0.00 0.00 0.00 31 1016.5
20260831233456 93 170 9.6 14.8 0.00 0.00 0.00 31 1016.5
20260831232951 93 169 9.6 14.8 0.00 0.00 0.00 31 1016.3
20260831232447 93 150 9.6 13.9 0.00 0.00 0.00 30 1016.6
20260831231943 93 163 13.0 15.6 0.00 0.00 0.00 30 1016.5
20260831231439 94 164 8.7 14.8 0.00 0.00 0.00 30 1016.5
20260831230934 93 168 5.2 11.3 0.00 0.00 0.00 30 1016.5
20260831230434 93 159 7.8 11.3 0.00 0.00 0.00 30 1016.9
20260831225929 94 162 9.6 13.9 0.00 0.00 0.00 29 1016.7
20260831225425 93 156 9.6 16.5 0.00 0.00 0.00 29 1016.8
20260831224920 95 162 11.3 13.0 0.00 0.00 0.00 28 1016.9
20260831224420 94 149 5.2 11.3 0.00 0.00 0.00 28 1016.9
20260831223914 95 165 9.6 11.3 0.00 0.00 0.00 27 1016.8
20260831223410 95 169 7.8 13.9 0.00 0.00 0.00 28 1016.8
20260831222907 94 159 4.3 9.6 0.00 0.00 0.00 30 1016.7
20260831222402 94 157 3.5 8.7 0.00 0.00 0.00 29 1016.9
20260831221857 95 156 4.3 7.8 0.00 0.00 0.00 28 1016.8
20260831221353 95 163 13.0 13.9 0.00 0.00 0.00 28 1016.8
20260831220848 94 162 7.8 12.2 0.00 0.00 0.00 28 1017.1
20260831220343 93 154 5.2 11.3 0.00 0.00 0.00 30 1016.9
20260831215838 96 167 8.7 12.2 0.00 0.00 0.00 27 1016.9
20260831215334 94 152 9.6 11.3 0.00 0.00 0.00 28 1017.0
20260831214830 93 151 7.0 17.4 0.00 0.00 0.00 30 1017.0
20260831214328 93 125 10.4 11.3 0.00 0.00 0.00 30 1016.8
20260831213822 94 155 6.1 12.2 0.00 0.00 0.00 29 1017.0
20260831213319 94 221 6.1 13.9 0.00 0.00 0.00 28 1017.0
20260831212814 95 199 12.2 17.4 0.00 0.00 0.00 29 1016.9
20260831212310 93 161 5.2 13.0 0.00 0.00 0.00 30 1017.2
20260831211803 95 160 7.8 13.0 0.00 0.00 0.00 28 1017.5
20260831211258 93 168 10.4 11.3 0.00 0.00 0.00 29 1017.6
20260831210752 94 170 7.0 13.9 0.00 0.00 0.00 30 1017.5
20260831210249 94 132 12.2 20.9 0.00 0.00 0.00 30 1017.6
20260831205748 93 164 5.2 8.7 0.00 0.00 0.00 30 1017.7
20260831205244 94 198 8.7 13.0 0.00 0.00 0.00 29 1017.7
20260831204744 94 218 11.3 18.2 0.00 0.00 0.00 29 1017.7
20260831204244 94 155 7.8 10.4 0.00 0.00 0.00 29 1017.8
20260831203743 96 150 8.7 11.3 0.00 0.00 0.00 28 1018.0
20260831203238 94 163 11.3 15.6 0.00 0.00 0.00 30 1018.0
20260831202736 93 157 4.3 7.0 0.00 0.00 0.00 29 1018.0
20260831202231 93 146 9.6 12.2 0.00 0.00 0.00 30 1018.2
20260831201731 93 152 9.6 15.6 0.00 0.00 0.00 30 1018.4
20260831201225 94 159 3.5 8.7 0.00 0.00 0.00 30 1018.4
20260831200720 94 164 7.8 12.2 0.00 0.00 0.00 31 1018.5
20260831200214 93 143 7.8 14.8 0.00 0.00 0.00 31 1018.5
20260831195710 94 175 9.6 13.9 0.00 0.00 0.00 30 1018.5
20260831195206 93 156 8.7 13.0 0.00 0.00 0.00 29 1018.6
20260831194700 96 130 6.1 12.2 0.00 0.00 0.00 29 1018.6
20260831194155 97 165 11.3 12.2 0.00 0.00 0.00 28 1018.6
20260831193650 94 162 6.1 6.1 0.00 0.00 0.00 31 1018.6
20260831193145 95 200 4.3 8.7 0.00 0.00 0.00 29 1018.8
20260831192641 93 192 3.5 7.0 0.00 0.00 0.00 30 1018.8
20260831192136 93 128 7.0 9.6 0.00 0.00 0.00 31 1018.9
20260831191632 94 163 11.3 15.6 0.00 0.00 0.00 30 1018.7
20260831191127 95 170 7.0 11.3 0.00 0.00 0.00 31 1018.9
20260831190622 94 182 3.5 7.0 0.00 0.00 0.00 31 1018.7
20260831190120 94 183 9.6 12.2 0.00 0.00 0.00 31 1019.0
20260831185611 93 199 5.2 5.2 0.00 0.00 0.00 31 1019.1
20260831185107 95 163 7.0 13.0 0.00 0.00 0.00 30 1019.2
20260831184606 94 173 8.7 12.2 0.00 0.00 0.00 31 1019.2
20260831184101 94 199 8.7 13.9 0.00 0.00 0.00 32 1019.2
20260831183600 94 144 3.5 10.4 0.00 0.00 0.00 32 1019.2
20260831183054 93 151 4.3 11.3 0.00 0.00 0.00 33 1019.5
20260831182549 92 147 7.0 13.0 0.00 0.00 0.00 34 1019.6
20260831182044 92 167 5.2 9.6 0.00 0.00 0.00 34 1019.5
20260831181539 92 159 9.6 13.9 0.00 0.00 0.00 33 1019.4
20260831181039 92 187 4.3 13.9 0.00 0.00 0.00 34 1019.5
20260831180534 92 211 6.1 12.2 0.00 0.00 0.00 35 1019.7
20260831180029 91 221 7.0 17.4 0.00 0.00 0.00 37 1019.5